Dewpoint
16 17 16 15 15 15 16 14 13 13 14 13 14 15 15 14 15 13 13 10 10 11 8 9 10 12 12 5 4 2 7 3 13 15 15 13 15 15 16 11 14 16 16 16 14 13 10 9 8 9 8 7 4 1 8 8 9 3 4 4 6 4 1 6 8 7 2 -4 -1 2 0 3 8 9 11 12 3 10 14 19 16 15 15 14 13
16 16 16 15 16 16 16 16 18 12 13 12 14 13 14 14 12 11 12 11 9 8 10 11 10 13 12 13 6 5 6 12 12 12 12 13 16 16 14 12 12 14 15 14 12 14 11 7 8 6 6 6 3 4 5 11 7 1 3 -0 4 1 -2 4 7 5 -15 -11 -13 -13 -5 8 21 16 12 5 7 15 17 15 14 11 11 13 11
16 15 16 16 16 16 16 16 14 14 13 13 13 13 13 14 13 13 13 13 12 10 12 10 10 13 9 8 6 6 4 4 4 9 9 13 13 16 14 12 11 10 13 15 11 11 9 8 6 4 6 5 6 3 5 2 2 1 1 -5 -7 -2 2 7 5 5 -13 -8 -2 -2 -10 -9 -3 7 7 8 3 11 11 9 9 5 5 8 9
17 17 17 16 16 16 16 16 15 15 14 13 12 13 13 16 14 14 14 14 14 14 17 12 10 8 12 11 10 5 4 13 13 11 12 9 9 12 13 12 11 9 9 14 13 9 9 8 7 5 2 7 -0 -3 1 -4 2 -1 0 -0 -1 -14 -8 -8 7 5 -1 -4 -11 -5 -6 -15 -21 2 -5 -2 2 8 6 5 4 3 3 5 7
17 17 17 17 16 16 16 17 16 15 15 14 14 13 12 15 17 17 15 14 15 17 16 17 16 15 14 14 14 11 8 8 6 5 6 9 11 9 10 12 10 9 8 9 13 11 10 8 6 5 2 6 -1 -3 -4 -1 1 -2 -1 -4 -9 -12 -9 -7 -3 3 1 6 -7 -3 -6 0 -4 -4 -7 -13 4 2 2 5 8 1 1 3 4
18 17 18 19 18 18 17 17 16 16 15 15 14 14 14 15 16 17 17 17 16 16 16 15 17 15 12 10 9 7 6 5 5 5 8 5 5 6 7 8 8 8 7 7 10 12 10 9 4 4 3 3 0 -3 -3 -0 -2 -2 -3 -6 -8 -3 -7 -7 -0 -6 1 1 6 2 -9 -8 -1 -1 -12 -17 5 1 3 0 1 1 -2 2 4
19 19 18 18 18 18 18 17 17 16 15 16 15 15 15 15 16 17 18 18 17 17 17 17 14 13 13 12 11 11 11 12 11 10 9 7 6 3 6 5 7 4 4 5 7 12 10 5 2 2 2 -1 2 -3 -4 -3 -5 -4 -2 -5 -11 -0 -7 -1 -6 -7 -6 -9 3 2 2 2 -1 -4 -8 -10 -13 -13 -5 -5 -4 1 -2 -1 -1
20 20 19 19 19 18 18 19 18 17 18 17 17 16 16 16 18 18 18 19 19 19 18 17 15 14 13 12 13 11 10 11 12 12 8 7 5 2 3 4 5 3 1 2 3 9 10 3 2 0 -1 -3 -0 -2 -5 -6 -8 -6 0 -7 -9 -6 -9 -4 -10 -7 -9 -1 0 -3 -3 -1 -4 -4 -4 -6 -5 -7 -8 -10 -9 -3 -3 -4 -1
20 20 20 20 19 19 19 19 18 18 18 18 18 17 17 17 19 19 18 18 18 19 19 17 17 15 14 13 12 13 13 13 13 15 12 10 6 4 2 2 2 2 1 -1 -1 3 9 5 1 -1 -2 -5 0 0 -6 -6 -10 -8 -5 -8 -11 -10 -9 -9 -2 -3 -4 -6 -5 -7 -4 -1 -6 -5 -6 -6 -3 -2 -7 -10 -11 -5 -6 -7 -5
22 21 20 20 20 19 19 19 19 19 19 19 21 19 18 18 19 20 19 18 18 18 19 19 17 17 15 15 14 13 13 13 13 12 10 8 6 4 3 2 0 -2 -1 -2 -4 -3 2 7 2 -1 -3 -7 2 -1 -7 -8 -10 -10 -10 -11 -11 -11 -11 -4 -5 -8 -4 -5 -5 -8 -1 -3 -1 -3 -4 -7 -6 -6 -8 -8 -6 -7 -9 -7 -6
21 22 21 21 21 20 19 19 20 20 21 20 20 19 19 19 20 19 19 19 19 19 18 17 17 15 14 14 14 14 14 14 13 13 12 11 8 6 5 4 2 -1 -4 -4 -6 -7 -4 4 3 -3 -4 -0 3 -4 -7 -9 -10 -10 -11 -11 -9 -10 -12 -8 -5 -2 -3 -4 -7 -7 -8 -9 -9 -5 -4 -5 -6 -7 -7 -7 -8 -8 -7 -8 -8
21 21 21 21 20 21 21 21 22 22 23 23 23 23 23 22 21 20 20 21 20 20 19 17 16 15 15 14 14 14 14 14 13 13 13 12 12 11 9 6 4 1 -1 -5 -7 -9 -5 1 4 -3 -4 -6 -0 -4 -7 -8 -8 -9 -10 -10 -10 -11 -12 -8 -10 -8 -8 -5 -8 -9 -9 -10 -8 -7 -7 -7 -8 -7 -8 -8 -8 -7 -9 -8 -7
20 20 19 19 19 21 21 21 22 23 23 23 24 24 23 23 23 21 21 22 21 21 18 18 17 16 15 15 15 15 14 14 13 14 14 13 12 11 11 11 7 2 -1 -4 -6 -9 -6 -1 0 -3 -4 -5 -1 -4 -5 -8 -9 -9 -10 -9 -9 -10 -10 -8 -9 -9 -10 -9 -5 -11 -9 -9 -8 -9 -10 -8 -7 -7 -7 -8 -7 -7 -9 -10 -7
19 19 18 18 18 19 20 21 22 22 22 22 22 22 21 21 21 20 19 20 20 20 19 19 18 18 17 16 16 15 15 15 14 14 14 14 13 12 12 11 9 8 2 -2 -5 -8 -6 -3 1 -2 -3 -2 -2 -5 -6 -8 -9 -10 -10 -10 -10 -10 -10 -10 -9 -10 -10 -10 -10 -5 -9 -8 -10 -11 -10 -10 -8 -4 -5 -5 -7 -9 -7 -8 -9
18 18 18 18 19 19 20 21 21 21 21 20 19 18 17 16 16 14 13 13 13 13 13 14 16 18 19 18 17 17 16 16 15 16 16 15 14 13 12 11 10 9 6 -3 -5 -6 -5 -2 -0 -1 -2 -3 -3 -5 -5 -7 -8 -8 -8 -9 -10 -11 -11 -10 -10 -10 -10 -9 -9 -8 -5 -9 -9 -10 -10 -10 -9 -9 -5 -5 -6 -6 -8 -9 -10
17 17 18 19 19 20 20 20 20 19 18 17 15 15 13 11 10 9 7 7 6 7 6 7 9 10 13 15 17 19 19 18 18 17 17 16 16 16 14 14 14 9 0 -3 -4 -4 -1 -1 0 -1 -4 -3 -3 -4 -5 -5 -5 -5 -6 -7 -9 -9 -10 -11 -10 -11 -10 -11 -11 -10 -8 -8 -9 -9 -9 -9 -9 -7 -7 -6 -4 -5 -7 -10 -12
15 17 18 18 19 19 19 19 17 16 14 13 13 11 9 7 5 4 4 5 5 6 6 6 6 6 7 8 9 10 12 15 17 18 18 18 17 16 15 15 11 2 -1 -1 -2 -2 -0 0 1 -1 -2 -2 -1 -2 -3 -4 -5 -5 -6 -6 -7 -10 -8 -10 -11 -11 -11 -11 -11 -10 -8 -7 -9 -9 -9 -8 -7 -6 -6 -6 -7 -5 -5 -8 -9
15 17 18 18 19 19 18 16 15 14 12 11 10 9 5 4 3 3 5 5 5 5 5 4 4 5 4 4 4 5 7 8 10 14 18 18 17 17 15 13 10 1 1 3 2 2 3 4 2 1 0 -1 -1 -2 -3 -4 -5 -5 -6 -7 -8 -9 -8 -9 -10 -11 -11 -11 -10 -10 -8 -8 -7 -8 -5 -7 -7 -4 -6 -4 -6 -6 -6 -6 -5
16 16 17 17 17 16 15 14 13 11 10 9 8 5 3 3 4 5 5 5 5 4 4 4 3 3 2 2 2 2 4 6 8 11 13 15 18 17 17 12 4 4 6 6 7 7 7 5 3 3 3 1 -0 -1 -2 -3 -4 -5 -6 -7 -8 -9 -10 -9 -9 -9 -9 -10 -10 -9 -9 -8 -7 -4 -4 -4 -6 -4 -6 -6 -6 -4 -4 -4 -4
15 15 16 17 16 14 13 11 10 9 8 7 5 4 3 3 5 6 6 5 5 4 3 3 3 2 1 1 1 3 4 6 5 5 9 13 16 16 13 7 7 9 9 8 9 8 7 7 5 6 4 1 -0 -1 -2 -3 -4 -5 -6 -6 -8 -9 -9 -10 -10 -10 -9 -9 -9 -9 -9 -9 -8 -7 -4 -5 -7 -4 -4 -6 -4 -4 -3 -3 -4
15 15 15 15 14 13 12 10 9 8 7 6 4 3 3 3 5 6 6 5 5 4 4 3 3 2 2 1 1 4 2 3 5 5 8 11 8 8 7 9 10 10 10 10 8 8 7 7 6 5 2 0 -1 -1 -3 -4 -5 -5 -6 -6 -7 -8 -9 -9 -10 -10 -10 -10 -9 -7 -9 -8 -9 -6 -6 -5 -5 -5 -4 -4 -3 -4 -4 -3 -3
15 15 15 14 13 11 11 9 8 7 6 4 4 3 3 3 5 7 6 6 5 5 4 4 2 2 2 2 1 5 3 6 4 5 6 6 7 8 8 8 8 8 8 8 8 9 9 7 5 3 1 0 -0 -2 -3 -4 -5 -5 -7 -7 -8 -9 -9 -10 -10 -10 -10 -10 -9 -9 -7 -8 -8 -5 -5 -5 -5 -4 -4 -5 -5 -4 -5 -4 -3
14 15 14 12 11 10 9 8 7 6 5 4 4 3 4 4 4 7 6 6 6 5 5 4 3 3 3 3 3 3 5 5 6 6 6 7 7 7 8 8 8 9 9 10 9 9 7 4 3 2 2 -0 -1 -3 -3 -4 -5 -5 -6 -7 -8 -9 -9 -9 -9 -9 -9 -7 -5 -5 -7 -7 -7 -6 -5 -5 -5 -5 -5 -5 -5 -4 -4 -4 -6
14 15 13 11 10 9 8 7 6 6 5 4 4 4 4 4 4 6 7 6 6 6 6 5 4 4 5 5 5 5 6 7 7 7 7 7 7 8 8 8 9 10 10 10 9 6 5 3 2 1 -0 -1 -2 -2 -2 -0 -4 -5 -6 -6 -8 -8 -8 -8 -8 -6 -4 -5 -5 -5 -5 -7 -5 -6 -6 -7 -6 -5 -5 -5 -4 -5 -5 -5 -4
15 14 12 10 9 8 7 6 6 7 5 4 3 4 4 4 4 5 7 7 6 7 7 6 5 5 6 5 6 6 7 7 8 8 8 8 8 9 9 8 9 10 9 8 6 4 2 2 0 0 -1 -2 -3 -3 -2 -2 -3 -5 -6 -6 -7 -5 -3 -4 -5 -5 -4 -4 -5 -5 -5 -5 -5 -6 -6 -7 -6 -5 -5 -5 -5 -5 -4 -3 -4
15 13 11 10 8 7 7 6 7 7 5 4 3 3 4 4 4 4 6 7 7 8 7 6 5 5 5 5 6 6 6 6 7 8 9 10 11 10 10 10 9 7 5 5 4 3 2 1 -0 -1 -2 -3 -3 -3 -2 -3 -4 -5 -6 -4 -3 -3 -5 -4 -4 -5 -5 -4 -4 -4 -5 -5 -4 -5 -6 -6 -6 -6 -6 -6 -5 -6 -4 -3 -2
14 12 10 9 7 6 6 6 7 7 6 4 3 3 4 3 3 4 6 8 8 6 7 5 4 4 3 4 4 4 4 4 5 6 7 7 7 7 6 6 5 5 4 2 2 1 1 -0 -1 -2 -3 -3 -3 -3 -3 -6 -5 -6 -4 -3 -4 -4 -4 -4 -4 -4 -4 -4 -4 -4 -4 -4 -4 -5 -5 -5 -6 -6 -6 -6 -6 -5 -4 -4 -3
13 10 10 9 7 6 6 6 7 7 5 3 1 3 2 3 3 4 4 6 6 6 7 4 3 2 1 2 2 2 2 2 2 2 2 3 2 2 1 2 3 2 1 0 -1 -0 -2 -2 -3 -4 -5 -3 -2 -3 -4 -4 -4 -4 -5 -5 -5 -5 -5 -5 -5 -5 -5 -5 -5 -4 -4 -4 -5 -5 -5 -6 -5 -6 -6 -6 -6 -5 -5 -4 -4
11 9 8 8 7 6 6 6 7 7 4 1 1 1 2 3 4 3 5 8 7 6 5 4 2 1 1 1 0 0 0 -2 -1 -2 -2 -2 -2 -3 -2 -3 -3 -2 0 -1 -1 -2 -3 -4 -4 -6 -5 -3 -4 -4 -4 -5 -6 -6 -7 -6 -6 -5 -5 -6 -6 -6 -5 -5 -5 -5 -5 -5 -4 -3 -3 -2 -3 -3 -6 -6 -5 -4 -5 -5 -5
11 10 8 8 7 6 6 7 7 5 2 0 1 1 2 3 4 5 4 6 6 6 4 2 1 -1 -2 -2 -3 -4 -4 -4 -4 -4 -4 -5 -4 -4 -4 -4 -5 -5 -5 -3 -5 -5 -5 -5 -6 -6 -7 -7 -6 -7 -2 1 4 -3 -6 -6 -5 -4 -5 -5 -5 -4 -4 -5 -6 -6 -5 -3 -2 -1 -1 0 1 2 2 -2 -5 -4 -5 -5 -5
11 10 9 8 7 6 7 7 7 3 1 1 1 2 3 3 4 6 6 5 4 3 2 -1 -2 -3 -5 -5 -6 -6 -6 -5 -5 -6 -6 -6 -5 -6 -7 -7 -7 -8 -8 -7 -7 -4 -8 -8 -8 -8 -8 -8 -7 -7 1 5 7 9 6 3 1 1 1 -1 -2 -3 -3 -3 -4 -5 -5 -3 -1 1 1 3 3 4 4 5 4 3 0 -4 -5
11 10 8 7 7 6 6 6 6 3 1 1 2 2 3 2 4 5 2 3 1 -0 -2 -4 -6 -7 -7 -6 -5 -5 -6 -6 -6 -6 -6 -7 -8 -8 -8 -7 -8 -7 -7 -8 -9 -8 -10 -10 -10 -11 -10 -8 -9 -2 6 7 9 10 9 4 4 4 5 4 2 1 -1 -1 -2 -2 -3 -3 -3 -3 -1 0 2 4 5 6 6 6 6 7 8
10 9 8 7 7 7 6 5 5 2 0 1 2 2 3 3 4 3 1 -1 -2 -4 -6 -8 -8 -8 -7 -6 -6 -6 -6 -7 -7 -8 -8 -8 -9 -8 -9 -9 -8 -9 -8 -9 -6 -6 -8 -10 -11 -8 -10 -9 -9 5 7 8 9 10 10 7 2 4 3 3 4 3 2 1 -0 -0 -1 -1 -2 1 1 1 -1 -1 3 5 5 5 5 6 10
9 8 8 7 8 6 4 4 3 1 1 2 3 3 3 3 4 1 -3 -4 -5 -6 -8 -8 -8 -7 -7 -7 -7 -7 -7 -8 -7 -8 -9 -9 -9 -9 -10 -10 -9 -8 -8 -8 -9 -8 -7 -9 -10 -11 -10 -10 -10 -4 6 8 9 11 10 9 5 5 5 5 5 5 4 3 3 2 2 1 1 1 1 2 1 1 -0 -0 0 1 2 3 4
7 7 7 7 6 2 1 3 2 1 2 2 2 2 1 1 -1 -3 -6 -6 -9 -9 -10 -7 -7 -7 -7 -7 -7 -8 -8 -8 -8 -9 -9 -9 -9 -9 -9 -8 -9 -7 -7 -8 -9 -10 -10 -10 -11 -11 -11 -11 -11 3 8 9 10 10 11 9 4 5 4 3 2 1 -0 -1 -1 -1 -0 0 0 -0 0 1 0 -0 -0 -1 -1 -1 -2 -1 -1
6 7 7 7 4 1 0 2 3 2 2 2 2 -1 -3 -4 -6 -6 -8 -10 -9 -8 -8 -8 -7 -8 -7 -7 -7 -8 -8 -9 -8 -9 -10 -8 -9 -10 -9 -9 -9 -8 -10 -10 -10 -12 -10 -10 -10 -12 -12 -11 -11 6 8 9 10 10 10 3 2 2 1 -0 -1 -2 -2 -1 -1 -1 -2 -2 -2 -1 0 6 5 1 -2 -3 -3 -4 -4 -3 -3
7 7 7 6 2 0 0 3 1 -0 1 2 1 -2 -5 -7 -8 -10 -9 -8 -8 -9 -9 -8 -7 -7 -7 -8 -8 -9 -8 -9 -9 -9 -10 -9 -8 -9 -9 -9 -10 -8 -8 -9 -9 -10 -11 -11 -11 -11 -12 -11 -11 -1 7 9 10 11 8 2 1 -0 -1 -0 -1 -2 -2 -2 -2 -2 -2 -2 -3 -3 -0 8 9 3 1 1 -0 -2 -2 -3 -3
7 6 5 3 1 0 1 2 -1 -1 1 1 -0 -4 -8 -8 -8 -8 -9 -7 -9 -9 -8 -8 -8 -8 -8 -9 -8 -9 -9 -9 -10 -10 -10 -9 -9 -11 -10 -10 -9 -9 -8 -9 -10 -10 -10 -11 -11 -11 -11 -11 -10 -5 6 8 10 10 8 2 3 2 1 -1 -2 -3 -3 -3 -2 1 1 -2 -4 -4 5 9 10 5 2 1 0 0 1 -1 -1
6 3 2 1 1 1 2 0 -2 -1 -0 -2 -4 -5 -7 -8 -7 -7 -8 -10 -9 -9 -9 -8 -8 -9 -9 -9 -9 -9 -9 -10 -10 -10 -11 -11 -10 -9 -9 -11 -10 -12 -11 -11 -10 -11 -11 -11 -11 -11 -8 -8 -9 -8 4 8 10 10 6 2 0 -1 -2 -3 -3 -3 -2 -3 -3 -1 -0 -1 -1 0 8 10 10 4 1 1 1 0 -1 -1 -1
4 1 1 1 1 1 -3 -3 -3 -2 -2 -4 -5 -7 -6 -7 -7 -9 -9 -9 -9 -8 -9 -9 -9 -10 -10 -8 -9 -9 -9 -11 -10 -11 -12 -13 -12 -12 -11 -10 -11 -11 -11 -11 -11 -12 -12 -11 -11 -11 -11 -11 -11 -11 -8 7 9 10 10 3 2 1 -1 -2 -3 -4 -4 -4 -4 -5 -3 3 8 9 10 10 8 10 4 2 2 0 -1 -1 0
2 1 3 1 -0 -1 -2 -3 -3 -1 -2 -4 -5 -7 -7 -7 -8 -9 -10 -9 -9 -9 -8 -9 -9 -10 -10 -9 -9 -11 -11 -12 -13 -14 -13 -13 -14 -12 -11 -12 -12 -12 -13 -13 -13 -13 -13 -13 -12 -12 -12 -13 -13 -13 -11 5 8 9 10 8 2 1 -1 -2 -4 -4 -5 -6 -6 -6 -6 -3 3 8 9 10 11 11 10 4 4 3 2 3 5
2 3 2 -1 -3 -3 -4 -4 -4 -3 -4 -5 -6 -7 -7 -8 -8 -10 -11 -11 -10 -9 -10 -10 -10 -10 -10 -10 -11 -12 -13 -13 -14 -14 -15 -15 -14 -14 -14 -15 -15 -15 -15 -15 -15 -15 -14 -14 -14 -14 -14 -14 -13 -11 -13 -2 6 8 9 9 2 1 1 -1 -2 -4 -4 -5 -4 -5 -5 -4 1 8 9 10 10 10 11 4 3 10 9 11 2
0 2 2 -1 -4 -4 -4 -3 -4 -5 -5 -5 -7 -8 -9 -9 -10 -10 -10 -10 -10 -10 -10 -10 -10 -11 -12 -13 -13 -15 -14 -15 -16 -16 -16 -17 -17 -17 -17 -17 -18 -18 -18 -18 -17 -17 -17 -17 -17 -16 -15 -15 -15 -15 -12 -12 -4 5 8 8 9 5 9 2 1 -0 -1 -1 -1 -2 -3 -1 7 9 9 10 11 10 9 5 10 11 8 6 2
-1 -0 1 -1 -4 -4 -4 -4 -5 -5 -6 -5 -8 -9 -10 -10 -10 -9 -11 -11 -11 -10 -11 -12 -13 -13 -14 -15 -15 -17 -17 -17 -17 -17 -18 -18 -18 -18 -18 -17 -18 -18 -18 -18 -17 -18 -19 -19 -19 -18 -17 -17 -16 -17 -13 -11 -11 2 6 8 9 9 9 3 1 -0 -0 -0 -1 -1 -2 6 8 9 9 10 10 9 4 9 10 8 6 1 -9
-1 -2 -1 -1 -3 -5 -4 -5 -5 -5 -7 -9 -10 -9 -11 -12 -12 -11 -11 -11 -12 -13 -14 -15 -16 -16 -16 -17 -17 -17 -18 -19 -17 -19 -19 -17 -17 -19 -17 -17 -19 -18 -18 -18 -18 -18 -19 -19 -19 -19 -19 -18 -17 -17 -18 -16 -12 -11 3 6 8 8 5 3 -1 -1 -2 -4 -1 7 8 7 7 8 9 8 7 4 4 6 2 2 3 -6 -9
-1 -3 -1 -1 -4 -6 -7 -6 -6 -7 -8 -9 -10 -11 -12 -11 -13 -12 -12 -12 -14 -16 -17 -17 -18 -18 -17 -18 -19 -18 -18 -19 -19 -19 -19 -18 -18 -18 -18 -18 -19 -19 -19 -19 -19 -19 -19 -19 -19 -19 -19 -19 -18 -18 -18 -18 -14 -13 -11 -2 5 2 0 0 -1 -3 -2 2 7 4 3 1 1 0 -3 -7 -9 -8 -3 -2 -2 -2 -6 -9 -11
-2 -2 -2 -3 -5 -5 -7 -8 -8 -9 -10 -11 -11 -12 -11 -11 -12 -12 -13 -15 -16 -17 -17 -17 -17 -17 -18 -19 -19 -17 -16 -16 -19 -19 -18 -19 -19 -19 -19 -19 -19 -19 -20 -20 -19 -19 -19 -19 -19 -19 -19 -19 -18 -18 -18 -17 -17 -17 -17 -15 -14 -13 -9 -7 -8 -9 -6 -7 -7 -6 -6 -5 -5 -3 -2 -1 -0 -0 -3 -4 -7 -6 -10 -10 -14
-2 -3 -3 -4 -5 -5 -7 -8 -8 -9 -11 -11 -12 -12 -12 -13 -14 -13 -16 -18 -18 -18 -17 -17 -17 -17 -17 -17 -18 -16 -15 -16 -16 -18 -18 -18 -19 -20 -20 -19 -19 -19 -20 -19 -19 -19 -19 -19 -19 -19 -18 -18 -18 -17 -17 -17 -15 -15 -15 -15 -15 -15 -15 -15 -14 -14 -13 -12 -11 -8 -8 -9 -9 -10 -11 -12 -11 -11 -10 -11 -11 -14 -14 -14 -11
-4 -4 -4 -4 -5 -7 -8 -9 -9 -10 -12 -13 -13 -13 -13 -13 -12 -15 -19 -19 -17 -18 -17 -18 -18 -19 -18 -17 -16 -17 -17 -17 -17 -17 -18 -18 -18 -18 -18 -18 -18 -18 -18 -18 -19 -18 -17 -17 -17 -17 -17 -16 -15 -14 -13 -10 -12 -8 -10 -10 -11 -12 -13 -13 -11 -7 -9 -10 -12 -12 -13 -13 -13 -13 -13 -13 -13 -14 -14 -14 -14 -15 -17 -19 -17
-3 -4 -5 -5 -7 -7 -8 -10 -10 -11 -12 -13 -14 -13 -14 -13 -15 -17 -19 -19 -18 -18 -20 -19 -19 -19 -18 -17 -17 -17 -19 -17 -18 -18 -18 -18 -16 -12 -13 -17 -16 -10 -8 -5 -2 -13 -14 -13 -13 -11 -10 -11 -11 -9 1 8 9 7 3 2 1 1 -1 -3 -3 -3 -4 -7 -8 -9 -10 -11 -12 -12 -13 -13 -13 -13 -13 -14 -16 -12 -15 -19 -18
-5 -5 -6 -7 -7 -8 -10 -11 -10 -12 -13 -13 -14 -14 -15 -15 -15 -16 -20 -19 -20 -19 -19 -18 -18 -18 -17 -16 -16 -16 -17 -18 -18 -19 -19 -19 -19 -18 -1 4 -2 -4 -5 5 7 9 9 4 1 -1 -1 -3 -4 1 8 7 7 4 -1 1 1 0 -0 -0 0 -3 -4 -3 -5 -7 -8 -9 -10 -10 -11 -11 -12 -12 -13 -13 -14 -15 -16 -17 -16